Hayward, WI

7:14 AM CDT on October 23, 2017 (GMT -0500)
Sawyer County

Weather History for KHYR - March, 2014

Change the Weather History Date:

Friday, March 28, 2014

  Actual Average Record
Temperature  
Mean Temperature 26 °F -  
Max Temperature 36 °F 37 °F 63 °F (2005)
Min Temperature 15 °F 13 °F -8 °F (1970)
Degree Days  
Heating Degree Days 40    
Moisture  
Dew Point 19 °F    
Average Humidity 73    
Maximum Humidity 95    
Minimum Humidity 41    
Precipitation  
Precipitation 0.00 in - - ()
Sea Level Pressure  
Sea Level Pressure 30.01 in    
Wind  
Wind Speed 3 mph (NNW)    
Max Wind Speed 6 mph    
Max Gust Speed -    
Visibility 10 miles    
Events      
Averages and records for this station are not official NWS values.
T = Trace of Precipitation, MM = Missing Value Source: NWS Daily Summary

Daily Weather History Graph

Daily Weather History Graph

Search for Another Location

Airport or City:

Trip Planner

Search our weather history database for the weather conditions in past years. The results will help you decide how hot, cold, wet, or windy it might be!

Date:

Astronomy

Mar. 28, 2014 Rise Set
Actual Time 6:53 AM CDT 7:29 PM CDT
Civil Twilight 6:23 AM CDT 7:59 PM CDT
Nautical Twilight 5:47 AM CDT 8:34 PM CDT
Astronomical Twilight 5:10 AM CDT 9:12 PM CDT
Moon 5:31 AM CDT (3/28) 5:20 PM CDT (3/28)
Length of Visible Light 13h 35m
Length of Day
12h 35m
Waning Crescent, 6% of the Moon is Illuminated
Mar 28
Waning Crescent
Mar 30
New
Apr 7
First Quarter
Apr 15
Full
Apr 22
Last Quarter

Hourly Weather History & Observations

Time (CDT) Temp. Windchill Dew Point Humidity Pressure Visibility Wind Dir Wind Speed Gust Speed Precip Events Conditions
12:53 AM 27.0 °F 21.6 °F 24.1 °F 89% 29.75 in 8.0 mi North 4.6 mph - N/A   Overcast
1:05 AM 27.0 °F 20.5 °F 24.1 °F 89% 29.71 in 9.0 mi North 5.8 mph - N/A   Overcast
1:53 AM 27.0 °F 21.6 °F 24.1 °F 89% 29.78 in 10.0 mi North 4.6 mph - N/A   Overcast
2:34 AM 27.0 °F 20.5 °F 24.1 °F 89% 29.75 in 9.0 mi Variable 5.8 mph - N/A   Overcast
2:53 AM 27.0 °F 21.6 °F 23.0 °F 85% 29.81 in 10.0 mi Variable 4.6 mph - N/A   Overcast
3:11 AM 27.0 °F 23.0 °F 23.0 °F 85% 29.77 in 10.0 mi Variable 3.5 mph - N/A   Overcast
3:19 AM 27.0 °F 21.6 °F 21.9 °F 81% 29.77 in 10.0 mi Variable 4.6 mph - N/A   Overcast
3:53 AM 26.1 °F 20.5 °F 21.9 °F 84% 29.84 in 10.0 mi Variable 4.6 mph - N/A   Mostly Cloudy
4:01 AM 25.0 °F 20.7 °F 21.0 °F 85% 29.80 in 10.0 mi Variable 3.5 mph - N/A   Mostly Cloudy
4:19 AM 25.0 °F - 21.0 °F 85% 29.81 in 10.0 mi Calm Calm - N/A   Scattered Clouds
4:53 AM 23.0 °F 18.4 °F 19.9 °F 88% 29.88 in 10.0 mi Variable 3.5 mph - N/A   Clear
5:53 AM 21.9 °F - 18.0 °F 85% 29.92 in 10.0 mi Calm Calm - N/A   Clear
6:53 AM 18.0 °F - 14.0 °F 84% 29.97 in 10.0 mi Calm Calm - N/A   Clear
7:53 AM 15.1 °F - 14.0 °F 95% 30.01 in 10.0 mi Calm Calm - N/A   Clear
8:53 AM 24.1 °F 19.7 °F 19.0 °F 81% 30.03 in 10.0 mi Variable 3.5 mph - N/A   Clear
9:53 AM 27.0 °F 23.0 °F 21.0 °F 78% 30.05 in 10.0 mi Variable 3.5 mph - N/A   Clear
10:53 AM 30.0 °F 26.5 °F 21.9 °F 72% 30.07 in 10.0 mi Variable 3.5 mph - N/A   Clear
11:53 AM 33.1 °F 28.7 °F 23.0 °F 66% 30.10 in 10.0 mi Variable 4.6 mph - N/A   Clear
12:53 PM 33.1 °F 28.7 °F 19.9 °F 59% 30.11 in 10.0 mi WNW 4.6 mph - N/A   Clear
1:53 PM 34.0 °F 28.8 °F 18.0 °F 52% 30.13 in 10.0 mi Variable 5.8 mph - N/A   Clear
2:53 PM 36.0 °F 32.1 °F 14.0 °F 41% 30.14 in 10.0 mi North 4.6 mph - N/A   Clear
3:53 PM 35.1 °F - 14.0 °F 42% 30.15 in 10.0 mi Calm Calm - N/A   Clear
4:53 PM 34.0 °F 31.0 °F 12.9 °F 42% 30.18 in 10.0 mi Variable 3.5 mph - N/A   Clear
5:53 PM 33.1 °F 30.0 °F 12.9 °F 43% 30.20 in 10.0 mi Variable 3.5 mph - N/A   Scattered Clouds
6:53 PM 30.9 °F - 12.9 °F 47% 30.23 in 10.0 mi Calm Calm - N/A   Mostly Cloudy
7:53 PM 28.9 °F - 15.1 °F 56% 30.24 in 10.0 mi Calm Calm - N/A   Mostly Cloudy
8:53 PM 28.0 °F - 19.0 °F 69% 30.25 in 10.0 mi Calm Calm - N/A   Mostly Cloudy
9:53 PM 26.1 °F - 19.0 °F 75% 30.26 in 10.0 mi Calm Calm - N/A   Mostly Cloudy
10:53 PM 26.1 °F - 19.9 °F 78% 30.27 in 10.0 mi Calm Calm - N/A   Overcast
11:53 PM 27.0 °F - 21.0 °F 78% 30.28 in 10.0 mi Calm Calm - N/A   Overcast